Weather History for LTCE - June, 2013

Change the Weather History Date:

Sunday, June 30, 2013

  Actual Average Record
Temperature  
Mean Temperature 66 °F -  
Max Temperature 85 °F 79 °F 87 °F (2000)
Min Temperature 46 °F 53 °F 33 °F (2004)
Growing Degree Days 16 (Base 50)    
Moisture  
Dew Point 42 °F    
Average Humidity 45    
Maximum Humidity 87    
Minimum Humidity 7    
Precipitation  
Precipitation 0.00 in 0.04 in - ()
Sea Level Pressure  
Sea Level Pressure 29.98 in    
Wind  
Wind Speed 4 mph ()    
Max Wind Speed 15 mph    
Max Gust Speed 23 mph    
Visibility 8.1 miles    
Events      
Averages and records for this station are not official NWS values.
T = Trace of Precipitation, MM = Missing Value Source: Averaged Metar Reports

Daily Weather History Graph

Daily Weather History Graph

Search for Another Location

Airport or City:

Trip Planner

Search our weather history database for the weather conditions in past years. The results will help you decide how hot, cold, wet, or windy it might be!

Date:

Astronomy

Jun. 30, 2013 Rise Set
Actual Time 4:49 AM EEST 7:48 PM EEST
Civil Twilight 4:17 AM EEST 8:20 PM EEST
Nautical Twilight 3:35 AM EEST 9:02 PM EEST
Astronomical Twilight 2:47 AM EEST 9:50 PM EEST
Moon No Moon Rise 12:40 PM EEST (6/30)
Length of Visible Light 16h 03m
Length of Day
14h 58m
Waning Gibbous, 48% of the Moon is Illuminated
Jun 30
Waning Gibbous
Jul 8
New
Jul 16
First Quarter
Jul 22
Full
Jul 29
Last Quarter

Hourly Weather History & Observations

Time (EEST) Temp. Windchill Dew Point Humidity Pressure Visibility Wind Dir Wind Speed Gust Speed Precip Events Conditions
12:20 AM 55.4 °F - 48.2 °F 77% 30.01 in - ESE 3.5 mph - N/A   Clear
12:50 AM 55.4 °F - 46.4 °F 72% 30.01 in - SSE 4.6 mph - N/A   Clear
1:20 AM 55.4 °F - 46.4 °F 72% 30.01 in - SE 3.5 mph - N/A   Clear
1:50 AM 53.6 °F - 46.4 °F 77% 30.01 in - Calm Calm - N/A   Clear
2:20 AM 51.8 °F - 44.6 °F 76% 30.01 in - Calm Calm - N/A   Clear
2:50 AM 50.0 °F - 44.6 °F 82% 30.01 in - Variable 1.2 mph - N/A   Clear
3:00 AM 51 °F - 45 °F 73%  in 12 mi NNW 1.2 mph - -  
3:20 AM 48.2 °F - 44.6 °F 87% 30.01 in - Variable 2.3 mph - N/A   Clear
3:50 AM 50.0 °F - 44.6 °F 82% 30.01 in - SSW 3.5 mph - N/A   Clear
4:20 AM 50.0 °F - 44.6 °F 82% 30.01 in - Variable 1.2 mph - N/A   Clear
4:50 AM 46.4 °F 44.3 °F 42.8 °F 87% 30.01 in - West 4.6 mph - N/A   Clear
5:20 AM 48.2 °F - 42.8 °F 82% 30.04 in - Variable 2.3 mph - N/A   Clear
5:50 AM 50.0 °F - 42.8 °F 76% 30.04 in - WSW 3.5 mph - N/A   Clear
6:20 AM 53.6 °F - 44.6 °F 72% 30.04 in - Variable 2.3 mph - N/A   Clear
6:50 AM 59.0 °F - 46.4 °F 63% 30.04 in - Calm Calm - N/A   Clear
7:20 AM 62.6 °F - 48.2 °F 59% 30.04 in - Variable 1.2 mph - N/A   Clear
7:50 AM 64.4 °F - 48.2 °F 56% 30.01 in - Variable 1.2 mph - N/A   Clear
8:20 AM 66.2 °F - 48.2 °F 52% 30.01 in - ENE 3.5 mph - N/A   Clear
8:50 AM 69.8 °F - 48.2 °F 46% 30.01 in - Variable 2.3 mph - N/A   Clear
9:00 AM 69 °F - 46 °F 32%  in 12 mi NNE 2.3 mph - -  
9:20 AM 71.6 °F - 44.6 °F 38% 30.01 in - Variable 3.5 mph - N/A   Clear
9:50 AM 71.6 °F - 46.4 °F 41% 30.01 in - ENE 4.6 mph - N/A   Clear
10:20 AM 73.4 °F - 46.4 °F 38% 30.01 in - Variable 4.6 mph - N/A   Clear
10:50 AM 75.2 °F - 44.6 °F 34% 29.98 in - Variable 3.5 mph - N/A   Clear
11:20 AM 77.0 °F - 44.6 °F 32% 29.98 in 6.2 mi NE 4.6 mph - N/A   Partly Cloudy
11:50 AM 78.8 °F - 44.6 °F 30% 29.98 in 6.2 mi Variable 5.8 mph - N/A   Partly Cloudy
12:20 PM 78.8 °F - 44.6 °F 30% 29.98 in 6.2 mi Variable 5.8 mph - N/A   Partly Cloudy
12:50 PM 80.6 °F - 46.4 °F 30% 29.95 in 6.2 mi NW 9.2 mph - N/A   Partly Cloudy
1:20 PM 82.4 °F - 42.8 °F 25% 29.95 in 6.2 mi NW 9.2 mph - N/A   Partly Cloudy
1:50 PM 82.4 °F - 42.8 °F 25% 29.95 in 6.2 mi WNW 10.4 mph - N/A   Partly Cloudy
2:20 PM 82.4 °F - 37.4 °F 20% 29.95 in - West 4.6 mph - N/A   Clear
2:50 PM 84.2 °F - 35.6 °F 18% 29.92 in - WNW 10.4 mph 23.0 mph N/A   Clear
3:00 PM 84 °F - 31 °F 7%  in 12 mi WNW 10.4 mph - -   Scattered Clouds
3:20 PM 84.2 °F - 32.0 °F 15% 29.92 in 6.2 mi West 12.7 mph - N/A   Partly Cloudy
3:50 PM 84.2 °F - 32.0 °F 15% 29.92 in 6.2 mi West 12.7 mph - N/A   Partly Cloudy
4:20 PM 84.2 °F - 33.8 °F 16% 29.92 in - WNW 11.5 mph - N/A   Clear
4:50 PM 84.2 °F - 32.0 °F 15% 29.92 in - West 15.0 mph - N/A   Clear
5:20 PM 84.2 °F - 35.6 °F 18% 29.92 in - West 11.5 mph - N/A   Clear
5:50 PM 84.2 °F - 35.6 °F 18% 29.92 in - West 11.5 mph - N/A   Clear
6:20 PM 82.4 °F - 37.4 °F 20% 29.92 in - West 9.2 mph - N/A   Clear
6:50 PM 80.6 °F - 41.0 °F 24% 29.92 in - SW 4.6 mph - N/A   Clear
7:20 PM 75.2 °F - 39.2 °F 27% 29.92 in - SW 4.6 mph - N/A   Clear
7:50 PM 73.4 °F - 39.2 °F 29% 29.92 in - SSW 6.9 mph - N/A   Clear
8:20 PM 71.6 °F - 37.4 °F 29% 29.95 in - SSW 6.9 mph - N/A   Clear
8:50 PM 68.0 °F - 37.4 °F 33% 29.95 in - Variable 5.8 mph - N/A   Clear
9:00 PM 69 °F - 39 °F 22%  in 12 mi SW 5.8 mph - -  
9:20 PM 66.2 °F - 39.2 °F 37% 29.95 in - Variable 2.3 mph - N/A   Clear
9:50 PM 64.4 °F - 39.2 °F 40% 29.98 in - Variable 2.3 mph - N/A   Clear
10:20 PM 68.0 °F - 35.6 °F 30% 29.95 in - SSW 4.6 mph - N/A   Clear
10:50 PM 60.8 °F - 39.2 °F 45% 29.95 in - Variable 2.3 mph - N/A   Clear
11:20 PM 55.4 °F - 42.8 °F 63% 29.98 in - ENE 3.5 mph - N/A   Clear
11:50 PM 55.4 °F - 41.0 °F 58% 29.95 in - East 5.8 mph - N/A   Clear